Погода в Алексеевке

Украина / Донецкая область     48°01′06″N   36°56′59″E
темп.,
°C
ветер,
м/с
пор.,
м/с
влажн.,
%
обл.,
%
осадки,
мм/ч
давл.,
гПа
погр.,
м
9 марта, вт
вт923:00−1зсз4797100 0.2 1012419
02:00−2з379698 0.3 1013222
05:00−3зсз498510 0.0 1014406
08:00−1зсз687014 0.0 1015848
11:000зсз666440 0.0 10171155
14:000зсз685470 0.1 10181534
17:00−1сз586091 0.0 1019610
20:00−3сз377150 0.0 1021345
10 марта, ср
ср1023:00−4сз367171 0.0 1022633
02:00−5ссз456855 0.0 1024815
05:00−5с456758 0.0 1025838
08:00−4ссв455552 0.0 1026789
11:00−2ссв334044 0.0 10261176
14:00−1ссв233672 0.0 10261233
17:00−2св2443100 0.0 1025318
20:00−3св364899 0.0 1026332
11 марта, чт
чт1123:00−4всв474796 0.0 1026500
02:00−4всв474878 0.0 1027535
05:00−5всв57500 0.0 1027610
08:00−5всв68460 0.0 1028709
11:00−3всв67400 0.0 10281026
14:00−2св67390 0.0 10281234
17:00−4св67325 0.0 10281110
20:00−6всв573224 0.0 10301026
12 марта, пт
пт1223:00−7всв56320 0.0 1031974
02:00−8всв56350 0.0 1031822
05:00−8всв45380 0.0 1032722
08:00−8вюв45350 0.0 1033728
11:00−5вюв45260 0.0 1032931
14:00−3юв442315 0.0 10321190
17:00−3юв342882 0.0 10311049
20:00−4ююв573369 0.0 1032777
13 марта, сб
сб1323:00−5ююв5837100 0.0 1032740
02:00−5ююв483899 0.0 1031641
05:00−6юв594271 0.0 1031457
08:00−4ююв694044 0.0 1031559
11:00−1ююв68350 0.0 1030768
14:00+1ююв57340 0.0 1028764
17:000юв474118 0.0 1027449
20:00−2юв510479 0.0 1027414